User: anonymous   Login
Location: Castro Valley
(37.6940°N, 122.0850°W)
Time: 00:55:00
(UTC-08:00)
Language:

PANSAT - Orbit

View from above orbital plane
View from above orbital plane
View from above satellite
View from above satellite

Ground track
Ground track

The orbit data is extracted from the following two-line orbital elements,

1 25520U 98064B   17057.21715681  .00001088  00000-0  30620-4 0  9994
2 25520  28.4589  20.0949 0005065 211.6042 148.4249 15.28209672 17291
Epoch (UTC): 26 February 2017 05:12:42
Eccentricity: 0.0005065
inclination: 28.4589°
perigee height: 477 km
apogee height: 484 km
right ascension of ascending node: 20.0949°
argument of perigee: 211.6042°
revolutions per day: 15.28209672
mean anomaly at epoch: 148.4249°
orbit number at epoch: 1729

The dashed part of the orbit path shows where the satellite is in the earth's shadow,  

DLR